Regional Weather Roundup
Issued by NWS

Home | Current Version | Previous Version | Graphics & Text | Print | Product List | Glossary Off
Versions: 1 2 3 4 5 6 7 8 9 10 11 12 13 14 15 16 17 18 19 20 21 22 23 24 25 26 27 28 29 30 31 32 33 34 35 36 37 38 39 40 41 42 43 44 45 46 47 48 49 50

000
ASUS43 KDTX 290610
RWRMI
MICHIGAN HOURLY REGIONAL WEATHER ROUNDUP
NATIONAL WEATHER SERVICE DETROIT/PONTIAC MI
200 AM EDT THU SEP 29 2016

NOTE: "FAIR" INDICATES FEW OR NO CLOUDS BELOW 12,000 FEET WITH NO
SIGNIFICANT WEATHER AND/OR OBSTRUCTION TO VISIBILITY.

MIZ047>049-052>055-059>063-066>070-074>076-081>083-290700-
SOUTHEAST LOWER MICHIGAN

CITY           SKY/WX    TMP DP  RH WIND       PRES   REMARKS
ADRIAN         LGT RAIN  57  57 100 E7        30.01F
6HR MIN TEMP:  56; 6HR MAX TEMP:  58;

ALMA           CLOUDY    60  57  89 N10       30.10S
ANN ARBOR      LGT RAIN  58  57  97 N5        30.01F
BAD AXE        PTCLDY    59  52  77 E8        30.14R
CARO           CLOUDY    61  54  76 NE6       30.10R
DETROIT CITY   LGT RAIN  59  59 100 NE7       30.01F
6HR MIN TEMP:  58; 6HR MAX TEMP:  61; 6HR PCP:  0.73;

DETROIT        RAIN      59  58  96 NE8       30.01F FOG
6HR MIN TEMP:  58; 6HR MAX TEMP:  59; 6HR PCP:  0.27;

FLINT          MOCLDY    59  55  87 CALM      30.05F
6HR MIN TEMP:  57; 6HR MAX TEMP:  61; 6HR PCP: TRACE;

GROSSE ILE     LGT RAIN  59  58  96 MISG      29.98F
HILLSDALE      RAIN      55  54  94 NE9       30.01S
HOWELL         DRIZZLE   58  56  93 NE7       30.03F
6HR MIN TEMP:  56; 6HR MAX TEMP:  58;


CITY           SKY/WX    TMP DP  RH WIND       PRES   REMARKS
JACKSON        LGT RAIN  57  57 100 NE3       30.04S
6HR MIN TEMP:  56; 6HR MAX TEMP:  57; 6HR PCP:  0.32;

LAMBERTVILLE   LGT RAIN  58  56  93 CALM      30.00F
6HR MIN TEMP:  58; 6HR MAX TEMP:  62;

LANSING        RAIN      57  53  86 N8        30.06S
6HR MIN TEMP:  57; 6HR MAX TEMP:  58; 6HR PCP:  0.01;

LAPEER         MOCLDY    63  54  72 NE6       30.06F
6HR MIN TEMP:  61; 6HR MAX TEMP:  64;

MASON          RAIN      56  55  93 NE7       30.05S
MONROE         RAIN      58  58  99 NW5       29.99S
MT. CLEMENS    CLOUDY    61  58  87 NE10      30.01F
6HR MIN TEMP:  60; 6HR MAX TEMP:  65; 6HR PCP:  0.04;

PONTIAC        CLOUDY    58  55  90 NE6       30.03F
6HR MIN TEMP:  57; 6HR MAX TEMP:  62; 6HR PCP:  0.15;

PORT HURON     PTCLDY    63  57  82 E13G18    30.06R
TRI CITIES     CLOUDY    61  53  75 NE10      30.11S
6HR MIN TEMP:  57; 6HR MAX TEMP:  63;

MIDLAND        FAIR      61  53  76 N9        30.11S
6HR MIN TEMP:  55; 6HR MAX TEMP:  61;

TROY           LGT RAIN  60  57  91 N7        30.03F
SAGINAW HB     CLOUDY    59  52  77 NE9       30.09S
$$
MIZ043>046-050>051-056>058-064>065-071>073-077>080-290700-
SOUTHWEST LOWER MICHIGAN

CITY           SKY/WX    TMP DP  RH WIND       PRES   REMARKS
BATTLE CREEK   LGT RAIN  57  56  96 NE9       30.05R
6HR MIN TEMP:  56; 6HR MAX TEMP:  57;

BENTON HARBOR  LGT RAIN  57  52  83 NE10      30.04F
6HR MIN TEMP:  57; 6HR MAX TEMP:  58; 6HR PCP:  0.03;

BIG RAPIDS     PTCLDY    59  54  83 NE7       30.14S
6HR MIN TEMP:  57; 6HR MAX TEMP:  59;

COLDWATER      LGT RAIN  57  56  99 NE12G17   30.01S
6HR MIN TEMP:  56; 6HR MAX TEMP:  57;

FREMONT        MOCLDY    55  51  85 NE6       30.12S
6HR MIN TEMP:  54; 6HR MAX TEMP:  58;

HOLLAND        CLOUDY    58  52  80 NE9       30.08S
6HR MIN TEMP:  57; 6HR MAX TEMP:  58;

GRAND RAPIDS   MOCLDY    57  53  86 N13       30.08S
6HR MIN TEMP:  55; 6HR MAX TEMP:  57;

IONIA          CLOUDY    58  53  82 NE10G20   30.07S
6HR MIN TEMP:  55; 6HR MAX TEMP:  58;

KALAMAZOO      LGT RAIN  57  53  86 N9        30.05R
6HR MIN TEMP:  56; 6HR MAX TEMP:  58; 6HR PCP:  0.22;

LUDINGTON      CLEAR     57  52  84 N7        30.16S
6HR MIN TEMP:  57; 6HR MAX TEMP:  60;

MARSHALL       LGT RAIN  56  56  98 NE3       30.04S
6HR MIN TEMP:  55; 6HR MAX TEMP:  56; 6HR PCP:  0.26;

MOUNT PLEASANT CLOUDY    60  54  78 NE10      30.12R
6HR MIN TEMP:  55; 6HR MAX TEMP:  60;

MUSKEGON       PTCLDY    57  51  80 N8        30.11S
6HR MIN TEMP:  56; 6HR MAX TEMP:  59; 6HR PCP: TRACE;

SOUTH HAVEN    CLOUDY    58  55  88 NE13      30.05S
$$
MIZ016>042-290700-
NORTHERN LOWER MICHIGAN

CITY           SKY/WX    TMP DP  RH WIND       PRES   REMARKS
ALPENA         CLEAR     62  54  74 E9        30.24R
6HR MIN TEMP:  55; 6HR MAX TEMP:  63;

BEAVER ISLAND  CLEAR     59  54  82 NE9       30.27S
6HR MIN TEMP:  51; 6HR MAX TEMP:  59;

BELLAIRE       CLEAR     50  49  95 CALM      30.23S
6HR MIN TEMP:  50; 6HR MAX TEMP:  58;

CADILLAC       CLEAR     54  50  89 NE7       30.19S
CHARLEVOIX     CLEAR     59  53  79 E6        30.28R
FRANKFORT      CLEAR     61  56  83 N3        30.21F
GAYLORD        CLEAR     55  51  86 NE8       30.24R
6HR MIN TEMP:  55; 6HR MAX TEMP:  59;

GRAYLING       CLEAR     54  52  93 NE8       30.22S
HARBOR SPRINGS CLEAR     58  52  79 NE9       30.25S
HOUGHTON LAKE  CLEAR     54  52  93 NE8       30.20R
6HR MIN TEMP:  53; 6HR MAX TEMP:  55;

MANISTEE       CLEAR     59  51  75 NE9       30.19R
OSCODA         CLEAR     63  55  75 E15G23    30.18S
6HR MIN TEMP:  59; 6HR MAX TEMP:  64;

PELLSTON       CLEAR     49  46  90 N3        30.27R
6HR MIN TEMP:  47; 6HR MAX TEMP:  55;

ROGERS CITY    CLEAR     61  55  79 E8        30.27R
TRAVERSE CITY  CLOUDY    60  52  74 NE8       30.21S
6HR MIN TEMP:  59; 6HR MAX TEMP:  64;

$$
MIZ007>008-015-290700-
EASTERN UPPER MICHIGAN

CITY           SKY/WX    TMP DP  RH WIND       PRES   REMARKS
KINROSS        CLEAR     53  49  86 NE6       30.30R
6HR MIN TEMP:  53; 6HR MAX TEMP:  59;

MACKINAC ISLAN CLEAR     58  51  77 NE7       30.28R
NEWBERRY       CLEAR     53  52  97 N6        30.31R
6HR MIN TEMP:  52; 6HR MAX TEMP:  56;

S. S. MARIE    CLEAR     57  49  74 NE5       30.30R
6HR MIN TEMP:  56; 6HR MAX TEMP:  59;

MUNISING         N/A     59  57  93 NW9       30.33R
6HR MIN TEMP:  58; 6HR MAX TEMP:  60;

$$
MIZ004>006-011>014-085-290700-
CENTRAL UPPER MICHIGAN

CITY           SKY/WX    TMP DP  RH WIND       PRES   REMARKS
MANISTIQUE     CLEAR     53  50  92 N8        30.29F
6HR MIN TEMP:  52; 6HR MAX TEMP:  55;

ESCANABA       CLEAR     54  52  93 N8        30.30S
6HR MIN TEMP:  54; 6HR MAX TEMP:  58;

MENOMINEE      CLEAR     53  51  93 N9        30.29S
6HR MIN TEMP:  53; 6HR MAX TEMP:  58;

SAWYER-GWINN   CLEAR     51  50  95 N8        30.35S
6HR MIN TEMP:  51; 6HR MAX TEMP:  55;

$$
MIZ001>003-009>011-084-290700-
WESTERN UPPER MICHIGAN

CITY           SKY/WX    TMP DP  RH WIND       PRES   REMARKS
IRON MOUNTAIN  MOCLDY    51  48  89 N9        30.33S
6HR MIN TEMP:  48; 6HR MAX TEMP:  57;

HOUGHTON       CLEAR     43  40  89 N3        30.37S
6HR MIN TEMP:  42; 6HR MAX TEMP:  55;

IRONWOOD       CLOUDY    46  46 100 CALM      30.40R
6HR MIN TEMP:  44; 6HR MAX TEMP:  53; 6HR PCP:  0.01;

$$

ABBREVIATIONS USED IN REMARKS
   TC - TEMPERATURE IN CELSIUS
  WCI - WIND CHILL INDEX
   HX - HEAT INDEX
  VSB - VISIBILITY




USA.gov is the U.S. government's official web portal to all federal, state and local government web resources and services.